SL-14 DEB, 45340

Orbit data source: Space-Track

SL-14 DEB, 45340 is space debris in LEO originally from a launch on Thu, 15 Aug 1991 UTC launched from the Plesetsk Missile And Space Complex (PKMTR). Debris objects in space refer to the collection of defunct objects orbiting the Earth. Examples of debris include non-operational satellites, rocket bodies, and fragments generated from explosions, collisions, or faulty payload assembly.

Loading next visibility...
Identifier
45340, 1991-056CE
Orbit
LEO
Country
Flag of CISCIS
Related business
Manufacturer
Unknown
Mission
Spacecraft
Bus & Motor
Unknown
Mass
Unknown
Launch date (UTC)
1991-08-15 (35 years ago)
Launch vehicle
Unknown
Launch site
Plesetsk Missile And Space Complex (PKMTR)
Object type
Payload
Rocket body
Debris
Shape & HBR
Unknown shape, 0.1 m
Radar Cross Section
Small (<0.1 m²)

Expand to show TLE details & history
Last TLE update: 16 hours ago

TLE from 16 hours ago
0 SL-14 DEB
1 45340U 91056CE  26126.30375998  .00006865  00000-0  11288-1 0  9994
2 45340  82.5376 140.3398 0096677 359.4416   0.6598 13.45230715298967
Epoch: 2026-05-06T07:17Z
TLE epoch observation values (Epoch: 2026-05-06T07:17:24.862Z)
Latitude
-0.00002°
Longitude
166.82003°
Altitude
1,020.498 km
Speed
7.377 km/s
True Right ascension
09h 21m 21s
True Declination
0° 00' 00"
Sunlit
Object was in daylight at epoch
Visualization orbit readout
Latitude
Unknown
Longitude
Unknown
Altitude
Unknown
Speed
Unknown
Apparent Right ascension
Unknown
Apparent Declination
Unknown
Sunlit
N/A
Visualization observer readout
Local Sidereal Time
07:40:39
Azimuth
Unknown
Elevation
Unknown
Doppler factor
Unknown
Orbital elements
Apogee altitude
1,159.234 km
Perigee altitude
1,014.892 km
Semi-major axis
7,465.2 km
Eccentricity
0.00967
Inclination
82.5376°
RAAN
140.3398°
Arg. of periapsis
359.4416°
True anomaly
0.67271°
Mean anomaly
0.6598°
Eccentric anomaly
0.66624°
Mean motion
3.36497 °/min
Orbital period
106.98 mins
BSTAR
0.011288
Loading maneuver chart data...
Computing Atmospheric mass density...
Loading historical data...
Loading historical data...
Loading historical data...
Loading historical data...
Loading historical data...
Loading historical data...
Loading historical data...

Documentation

Showing up to 5 results
|